[[{"header":{"parameterUnit":"m.s-1","parameterCategory":1,"la1":30.2991,"la2":30.254,"lo1":-89.0895,"lo2":-89.0444,"dy":0.0017,"dx":0.0017,"nx":28,"ny":28,"refTime":"2024-04-01T09:00:00:Z","depth":0,"parameterNumber":2,"parameterNumberName":"U-component_of_WINDS"},"data":[0,0,0,0,0,0,0,0,0,0,0,0,0,0,0,0,0,0,0,0,0,0,0,0,0,0,0,0,0,0,0,0,0,0,0,0,0,0,0,0,0,0,0,0,0,0,0,0,0,0,0,0,0,0,0,0,0,0,8.3023,8.3024,0,8.3139,8.314,8.3141,8.3057,8.3054,8.305,8.3046,8.3166,8.3172,8.3179,0,0,0,0,0,0,0,0,0,0,0,0,0,8.273,8.2736,8.3022,8.3024,8.3025,8.3139,8.314,8.3142,8.3058,8.3054,8.3049,8.3045,8.3164,8.3172,8.318,0,0,0,0,0,0,0,0,0,0,0,0,0,8.2853,8.2738,8.3022,8.2997,8.2996,8.3138,8.314,8.3142,8.3059,8.3053,8.3048,8.3043,8.3161,8.3171,8.3181,8.3354,0,0,8.3211,8.3215,0,0,0,0,0,0,0,0,8.2846,8.2864,8.2999,8.2999,8.2998,8.3078,8.3081,8.3213,8.306,8.3035,8.3046,8.304,8.3141,8.3152,8.3186,8.3359,8.3364,8.3212,8.3218,8.3222,8.3225,0,0,0,0,0,0,0,8.2837,8.2858,8.3068,8.3002,8.3001,8.2981,8.2992,8.3105,8.3118,8.3037,8.3031,8.3046,8.314,8.3177,8.3189,8.3366,8.3212,8.3221,8.3227,8.3231,8.369,8.3696,0,0,0,0,0,0,8.2831,8.2852,8.3065,8.3072,8.2907,8.2991,8.3003,8.3058,8.3117,8.312,8.3051,8.3042,8.3163,8.3177,8.3193,8.3401,8.3222,8.3232,8.3237,8.3684,8.3692,8.3698,0,0,0,0,0,0,8.2825,8.2851,8.306,8.296,8.2985,8.3002,8.3064,8.3063,8.31,8.3127,8.3129,8.3086,8.3159,8.3178,8.3315,8.3404,8.3236,8.3245,8.3677,8.3686,8.3695,8.3819,0,0,0,0,0,0,8.2817,8.2849,8.2915,8.2962,8.2991,8.318,8.3069,8.3069,8.3118,8.3107,8.3161,8.3165,8.3156,8.3301,8.3325,8.3415,8.3253,8.3669,8.3681,8.3692,8.3807,8.3832,8.3853,0,0,0,0,0,8.2807,8.2944,8.2918,8.2944,8.3073,8.3186,8.3202,8.3189,8.3125,8.3192,8.3209,8.3163,8.339,8.3315,8.3342,8.3436,8.3663,8.3677,8.3691,8.3797,8.3827,8.3852,0,0,0,0,0,0,8.2906,8.295,8.2922,8.3078,8.3129,8.3171,8.3254,8.3221,8.3291,8.3278,8.3259,8.3272,8.3416,8.3439,8.3355,8.3609,8.3517,8.3537,8.3588,8.3617,8.3639,8.3631,8.3261,0,0,0,0,0,8.2946,8.3034,8.3067,8.3203,8.3229,8.3238,8.3286,8.3273,8.3324,8.3345,8.3372,8.3425,8.3508,8.3563,8.3641,8.381,8.3822,8.3888,8.3911,8.3929,8.3948,8.4041,8.4072,8.3744,8.3744,8.3744,0,0,8.303,8.3065,8.3121,8.3224,8.3261,8.3353,8.3256,8.3357,8.3426,8.336,8.3492,8.3514,8.3571,8.3725,8.3794,8.3749,8.4041,8.3947,8.3962,8.397,8.4059,8.409,8.4118,8.3754,8.3752,8.3751,0,0,8.323,8.3265,8.3382,8.3423,8.3481,8.3486,8.3515,8.3563,8.3575,8.3707,8.366,8.3742,8.3885,8.3929,8.3969,8.4189,8.415,8.4215,8.4334,8.4426,8.4452,8.4475,8.4556,8.4585,8.4233,8.4233,8.4233,0,8.3327,8.3464,8.3447,8.3553,8.36,8.3546,8.3666,8.3706,8.3787,8.3821,8.3769,8.395,8.3984,8.415,8.4204,8.4238,8.4271,8.4209,8.4449,8.4472,8.4493,8.457,8.46,8.4241,8.424,8.4239,8.4238,0,8.3582,8.3677,8.3766,8.3847,8.3904,8.4016,8.4017,8.4077,8.4059,8.407,8.4206,8.4246,8.4332,8.437,8.4352,8.4534,8.4504,8.4451,8.4359,8.4532,8.4605,8.4634,8.4252,8.4249,8.4247,8.4245,0,0,8.3848,8.3919,8.3952,8.3989,8.4051,8.4125,8.4235,8.432,8.4374,8.4431,8.4525,8.4649,8.4601,8.4648,8.4635,8.4715,8.489,8.4652,8.4654,8.4697,8.5096,8.5137,8.5171,8.4864,8.487,8.4874,8.5092,0,8.4053,8.4246,8.4236,8.4417,8.4507,8.4457,8.4554,8.4603,8.4617,8.4695,8.471,8.4799,8.4728,8.4756,8.4833,8.4853,8.497,8.4836,8.4953,8.4957,8.4942,8.5208,8.5252,8.5455,8.512,8.5124,8.5128,0,8.4319,8.4387,8.4578,8.4629,8.4666,8.4753,8.4832,8.4907,8.4962,8.4966,8.502,8.4995,8.5108,8.5012,8.5169,8.5078,8.5125,8.5142,8.515,8.5162,8.5054,8.523,8.5519,8.5551,8.5171,8.5168,8.5165,0,8.4497,8.4637,8.477,8.4803,8.4864,8.4928,8.4956,8.5006,8.5058,8.5127,8.5161,8.5242,8.5287,8.5351,8.5348,8.5278,8.5509,8.5412,8.5517,8.5518,8.5569,8.5566,8.5873,8.5596,8.5596,8.5595,8.5595,0,8.4729,8.4849,8.4851,8.4934,8.5067,8.5053,8.5186,8.5208,8.5253,8.5339,8.53,8.5382,8.5373,8.5456,8.5455,8.5587,8.5607,8.5615,8.5614,8.562,8.5619,8.5651,8.5638,8.5603,8.5602,8.56,8.5599,0,8.4952,8.4958,8.51,8.5147,8.5162,8.5258,8.5299,8.5378,8.5388,8.5498,8.5523,8.5541,8.5637,8.564,8.575,8.5749,8.5911,8.5893,8.5893,8.589,8.5997,8.5988,8.6336,8.6382,8.6074,8.6077,8.6079,0,8.51,8.5191,8.5249,8.5304,8.5337,8.5426,8.548,8.5471,8.5529,8.56,8.5671,8.5763,8.5837,8.5993,8.6016,8.61,8.6085,8.6202,8.6097,8.6102,8.609,8.6085,8.6096,8.6222,8.6226,8.6229,8.6231,0,8.5365,8.5364,8.5443,8.5525,8.5591,8.5654,8.5713,8.5761,8.5759,8.5826,8.5924,8.5982,8.6095,8.6188,8.6271,8.63,8.6267,8.6263,8.6293,8.6301,8.6298,8.6304,8.5951,8.6256,8.6253,8.6251,8.625,8.6249,8.5557,8.5636,8.569,8.578,8.5824,8.5881,8.5958,8.5979,8.606,8.6152,8.6141,8.6251,8.6306,8.6414,8.6451,8.6537,8.6497,8.6539,8.655,8.6561,8.6574,8.6283,8.6552,8.6551,8.655,8.655,8.6549,0,8.5821,8.5854,8.5937,8.6022,8.6093,8.6054,8.6118,8.6181,8.6278,8.6332,8.6406,8.652,8.661,8.6641,8.6729,8.6793,8.678,8.6816,8.6813,8.6821,8.6603,8.657,8.6826,8.6826,8.6826,8.6825,8.6825,8.6825,8.5968,8.6101,8.6107,8.6263,8.6294,8.6402,8.6442,8.6495,8.6538,8.6667,8.6742,8.6761,8.6807,8.6898,8.698,8.6987,8.7022,8.7066,8.7067,8.6863,8.6836,8.6809,8.6778,8.7073,8.7074,8.7277,8.7279,8.7281]},{"header":{"parameterUnit":"m.s-1","parameterCategory":1,"la1":30.2991,"la2":30.254,"lo1":-89.0895,"lo2":-89.0444,"dy":0.0017,"dx":0.0017,"nx":28,"ny":28,"refTime":"2024-04-01T09:00:00:Z","depth":0,"parameterNumber":3,"parameterNumberName":"V-component_of_WINDS"},"data":[0,0,0,0,0,0,0,0,0,0,0,0,0,0,0,0,0,0,0,0,0,0,0,0,0,0,0,0,0,0,0,0,0,0,0,0,0,0,0,0,0,0,0,0,0,0,0,0,0,0,0,0,0,0,0,0,0,0,-0.9035,-0.9033,0,-0.8875,-0.8874,-0.8872,-0.8837,-0.8838,-0.8839,-0.884,-0.867,-0.8665,-0.8659,0,0,0,0,0,0,0,0,0,0,0,0,0,-0.9304,-0.93,-0.9035,-0.9033,-0.9031,-0.8876,-0.8874,-0.8871,-0.8836,-0.8838,-0.8839,-0.8841,-0.8672,-0.8666,-0.8659,0,0,0,0,0,0,0,0,0,0,0,0,0,-0.917,-0.9298,-0.9035,-0.8995,-0.899,-0.8876,-0.8873,-0.8871,-0.8836,-0.8838,-0.884,-0.8841,-0.8674,-0.8666,-0.8658,-0.8571,0,0,-0.8632,-0.8629,0,0,0,0,0,0,0,0,-0.9178,-0.916,-0.9003,-0.8998,-0.8992,-0.8878,-0.8906,-0.877,-0.8836,-0.8894,-0.884,-0.8842,-0.8738,-0.8724,-0.869,-0.8563,-0.8556,-0.8631,-0.8626,-0.8623,-0.862,0,0,0,0,0,0,0,-0.9187,-0.9167,-0.8972,-0.9001,-0.8994,-0.8983,-0.8966,-0.888,-0.8808,-0.8889,-0.8887,-0.8868,-0.8735,-0.8698,-0.8686,-0.8553,-0.8632,-0.8624,-0.8619,-0.8616,-0.8347,-0.8345,0,0,0,0,0,0,-0.9204,-0.9175,-0.8977,-0.8967,-0.9091,-0.8977,-0.8958,-0.8913,-0.8809,-0.8795,-0.8867,-0.8867,-0.8712,-0.8696,-0.868,-0.8571,-0.8623,-0.8615,-0.861,-0.8349,-0.8346,-0.8344,0,0,0,0,0,0,-0.921,-0.9187,-0.8983,-0.907,-0.9043,-0.8971,-0.892,-0.8908,-0.8872,-0.8792,-0.8778,-0.8843,-0.8713,-0.8692,-0.8599,-0.8564,-0.8611,-0.8603,-0.8351,-0.8348,-0.8345,-0.8353,0,0,0,0,0,0,-0.9218,-0.9189,-0.9157,-0.907,-0.9039,-0.8906,-0.8918,-0.8904,-0.8858,-0.8857,-0.8766,-0.8753,-0.8712,-0.8611,-0.859,-0.8554,-0.8597,-0.8354,-0.835,-0.8346,-0.8355,-0.835,-0.8346,0,0,0,0,0,-0.9228,-0.9164,-0.9155,-0.9132,-0.8997,-0.8905,-0.8887,-0.8843,-0.8856,-0.8822,-0.877,-0.8756,-0.8572,-0.8602,-0.8578,-0.8538,-0.8356,-0.8351,-0.8346,-0.8357,-0.8351,-0.8346,0,0,0,0,0,0,-0.9246,-0.9152,-0.9141,-0.9047,-0.8985,-0.8899,-0.8854,-0.8838,-0.8769,-0.877,-0.8718,-0.8697,-0.8608,-0.8564,-0.8599,-0.8449,-0.8464,-0.8454,-0.8481,-0.8474,-0.847,-0.8482,-0.859,0,0,0,0,0,-0.924,-0.9175,-0.9095,-0.902,-0.8989,-0.8928,-0.8885,-0.8858,-0.879,-0.8762,-0.8704,-0.8637,-0.8564,-0.8517,-0.8445,-0.8349,-0.8328,-0.831,-0.8306,-0.8302,-0.8294,-0.8239,-0.823,-0.8328,-0.8328,-0.8328,0,0,-0.9225,-0.9165,-0.9127,-0.9022,-0.897,-0.8902,-0.8905,-0.8833,-0.8781,-0.875,-0.866,-0.8615,-0.8536,-0.8442,-0.8397,-0.8402,-0.8262,-0.8296,-0.8294,-0.8287,-0.8233,-0.8224,-0.8216,-0.8325,-0.8326,-0.8326,0,0,-0.9163,-0.9112,-0.9044,-0.8993,-0.8915,-0.8875,-0.8858,-0.8775,-0.8745,-0.8654,-0.8629,-0.8566,-0.8442,-0.8387,-0.8343,-0.8262,-0.8246,-0.824,-0.8216,-0.8163,-0.8155,-0.8148,-0.8119,-0.8109,-0.8233,-0.8233,-0.8233,0,-0.9154,-0.9052,-0.9011,-0.894,-0.8894,-0.8866,-0.8796,-0.8747,-0.8649,-0.8617,-0.8625,-0.8469,-0.8414,-0.8306,-0.8287,-0.8252,-0.8231,-0.825,-0.816,-0.8153,-0.8145,-0.8116,-0.8106,-0.8232,-0.8232,-0.8232,-0.8232,0,-0.9045,-0.8975,-0.8929,-0.8837,-0.8786,-0.8716,-0.8662,-0.8615,-0.8592,-0.8551,-0.8458,-0.8391,-0.8306,-0.8279,-0.8254,-0.8167,-0.8173,-0.8171,-0.8185,-0.8137,-0.8108,-0.8097,-0.8232,-0.8232,-0.8232,-0.8232,0,0,-0.8988,-0.8876,-0.886,-0.8818,-0.8731,-0.8675,-0.8603,-0.8522,-0.8483,-0.8416,-0.8354,-0.825,-0.8249,-0.8199,-0.8168,-0.8123,-0.8062,-0.8127,-0.8124,-0.8116,-0.7961,-0.7962,-0.795,-0.8052,-0.8049,-0.8048,-0.7967,0,-0.8915,-0.8788,-0.8749,-0.8642,-0.8576,-0.8549,-0.8486,-0.8425,-0.8385,-0.8322,-0.8276,-0.8203,-0.8207,-0.8177,-0.8131,-0.808,-0.803,-0.8085,-0.7991,-0.7988,-0.8011,-0.7935,-0.7935,-0.7863,-0.7956,-0.7954,-0.7953,0,-0.8813,-0.8747,-0.8634,-0.8556,-0.8527,-0.8472,-0.8394,-0.8335,-0.8265,-0.8238,-0.8184,-0.8157,-0.808,-0.81,-0.7992,-0.803,-0.7989,-0.7959,-0.7955,-0.7943,-0.7967,-0.792,-0.7838,-0.7827,-0.7935,-0.7936,-0.7938,0,-0.8782,-0.8665,-0.8583,-0.8548,-0.8455,-0.8417,-0.8376,-0.8308,-0.8262,-0.8193,-0.8163,-0.8086,-0.8043,-0.7984,-0.7937,-0.7956,-0.7832,-0.7849,-0.7807,-0.7808,-0.7781,-0.7783,-0.769,-0.7757,-0.7757,-0.7757,-0.7757,0,-0.8704,-0.8636,-0.8568,-0.8517,-0.844,-0.8395,-0.8319,-0.8276,-0.8216,-0.8155,-0.8127,-0.807,-0.8012,-0.7947,-0.791,-0.7825,-0.7806,-0.7782,-0.7772,-0.7784,-0.7787,-0.7755,-0.7759,-0.7754,-0.7755,-0.7755,-0.7756,0,-0.8656,-0.8609,-0.8517,-0.8437,-0.8415,-0.8362,-0.8292,-0.8241,-0.82,-0.8124,-0.8103,-0.8038,-0.796,-0.7908,-0.7808,-0.7783,-0.7691,-0.7683,-0.7715,-0.771,-0.7672,-0.7676,-0.7554,-0.7536,-0.7616,-0.7615,-0.7615,0,-0.8609,-0.8556,-0.8472,-0.843,-0.839,-0.8323,-0.8276,-0.823,-0.8182,-0.8099,-0.8057,-0.7978,-0.7912,-0.7789,-0.7732,-0.7655,-0.7644,-0.7607,-0.7632,-0.7646,-0.7643,-0.7646,-0.764,-0.7603,-0.7602,-0.7602,-0.7601,0,-0.853,-0.851,-0.8445,-0.8372,-0.8318,-0.8257,-0.8197,-0.8164,-0.8106,-0.8054,-0.7976,-0.7925,-0.7824,-0.7745,-0.7663,-0.7619,-0.76,-0.7594,-0.758,-0.7591,-0.7611,-0.7599,-0.7703,-0.7597,-0.7597,-0.7597,-0.7598,-0.7598,-0.8481,-0.8433,-0.8366,-0.8295,-0.8245,-0.8189,-0.8137,-0.8091,-0.8025,-0.7941,-0.7917,-0.7835,-0.7766,-0.7654,-0.7609,-0.7543,-0.7546,-0.7526,-0.7521,-0.7517,-0.7516,-0.7623,-0.7528,-0.7528,-0.7528,-0.7528,-0.7528,0,-0.84,-0.8356,-0.8291,-0.8208,-0.8152,-0.8142,-0.8074,-0.8027,-0.7956,-0.7894,-0.7831,-0.774,-0.7664,-0.7602,-0.7523,-0.7482,-0.7471,-0.7463,-0.7464,-0.7454,-0.7518,-0.7537,-0.7473,-0.7473,-0.7473,-0.7473,-0.7473,-0.7473,-0.8351,-0.827,-0.8241,-0.8134,-0.809,-0.8011,-0.7973,-0.7921,-0.7872,-0.7773,-0.771,-0.7671,-0.7608,-0.7525,-0.7454,-0.7437,-0.7409,-0.7402,-0.7384,-0.7444,-0.745,-0.7456,-0.7474,-0.7397,-0.7397,-0.7326,-0.7325,-0.7324]}]]